Cody, WY

1:25 PM MDT on October 17, 2017 (GMT -0600)
Yellowstone Regional

Weather History for KCOD - April, 2013

Change the Weather History Date:

Thursday, April 18, 2013

  Actual Average Record
Temperature  
Mean Temperature 29 °F -  
Max Temperature 46 °F 57 °F 82 °F (1946)
Min Temperature 12 °F 33 °F 12 °F (2013)
Degree Days  
Heating Degree Days 36    
Moisture  
Dew Point 13 °F    
Average Humidity 55    
Maximum Humidity 93    
Minimum Humidity 25    
Precipitation  
Precipitation 0.00 in - - ()
Sea Level Pressure  
Sea Level Pressure 30.11 in    
Wind  
Wind Speed 4 mph (WNW)    
Max Wind Speed 14 mph    
Max Gust Speed 30 mph    
Visibility 10 miles    
Events      
Averages and records for this station are not official NWS values.
T = Trace of Precipitation, MM = Missing Value Source: NWS Daily Summary

Daily Weather History Graph

Daily Weather History Graph

Search for Another Location

Airport or City:

Trip Planner

Search our weather history database for the weather conditions in past years. The results will help you decide how hot, cold, wet, or windy it might be!

Date:

Astronomy

Apr. 18, 2013 Rise Set
Actual Time 6:26 AM MDT 8:04 PM MDT
Civil Twilight 5:55 AM MDT 8:35 PM MDT
Nautical Twilight 5:18 AM MDT 9:13 PM MDT
Astronomical Twilight 4:38 AM MDT 9:53 PM MDT
Moon 12:38 PM MDT (4/18) 2:24 AM MDT (4/18)
Length of Visible Light 14h 39m
Length of Day
13h 38m
First Quarter, 52% of the Moon is Illuminated
Apr 18
First Quarter
Apr 25
Full
May 2
Last Quarter
May 9
New
May 17
First Quarter

Hourly Weather History & Observations

Time (MDT) Temp. Windchill Dew Point Humidity Pressure Visibility Wind Dir Wind Speed Gust Speed Precip Events Conditions
12:15 AM 19.4 °F - 14.0 °F 80% 30.17 in 10.0 mi Calm Calm - N/A   Clear
12:55 AM 17.6 °F - 15.8 °F 93% 30.17 in 10.0 mi Calm Calm - N/A   Clear
1:15 AM 19.4 °F - 14.0 °F 80% 30.17 in 10.0 mi Calm Calm - N/A   Clear
1:35 AM 15.8 °F 10.2 °F 12.2 °F 86% 30.17 in 10.0 mi South 3.5 mph - N/A   Clear
2:15 AM 15.8 °F 6.1 °F 12.2 °F 86% 30.17 in 10.0 mi SSE 6.9 mph - N/A   Clear
2:35 AM 15.8 °F 5.1 °F 10.4 °F 79% 30.16 in 10.0 mi South 8.1 mph - N/A   Clear
2:55 AM 15.8 °F 5.1 °F 12.2 °F 86% 30.16 in 10.0 mi SSE 8.1 mph - N/A   Clear
3:35 AM 15.8 °F 10.2 °F 10.4 °F 79% 30.15 in 10.0 mi South 3.5 mph - N/A   Clear
3:55 AM 14.0 °F 5.1 °F 10.4 °F 86% 30.15 in 10.0 mi South 5.8 mph - N/A   Clear
4:15 AM 14.0 °F 8.2 °F 10.4 °F 86% 30.14 in 10.0 mi SSW 3.5 mph - N/A   Clear
4:35 AM 12.2 °F - 10.4 °F 92% 30.14 in 10.0 mi Calm Calm - N/A   Clear
4:55 AM 14.0 °F - 10.4 °F 86% 30.14 in 10.0 mi Calm Calm - N/A   Partly Cloudy
5:15 AM 12.2 °F - 10.4 °F 92% 30.13 in 10.0 mi Calm Calm - N/A   Clear
5:35 AM 14.0 °F - 10.4 °F 86% 30.13 in 10.0 mi Calm Calm - N/A   Clear
5:55 AM 14.0 °F - 10.4 °F 86% 30.12 in 10.0 mi Calm Calm - N/A   Clear
6:15 AM 14.0 °F 8.2 °F 8.6 °F 79% 30.12 in 10.0 mi SSE 3.5 mph - N/A   Clear
6:35 AM 12.2 °F - 6.8 °F 79% 30.12 in 10.0 mi Calm Calm - N/A   Clear
6:55 AM 12.2 °F - 8.6 °F 85% 30.12 in 10.0 mi Calm Calm - N/A   Clear
7:15 AM 14.0 °F - 10.4 °F 86% 30.12 in 10.0 mi Calm Calm - N/A   Clear
7:35 AM 15.8 °F - 12.2 °F 86% 30.12 in 10.0 mi Calm Calm - N/A   Clear
7:55 AM 17.6 °F - 12.2 °F 79% 30.12 in 10.0 mi Calm Calm - N/A   Clear
8:15 AM 19.4 °F - 15.8 °F 86% 30.13 in 10.0 mi Calm Calm - N/A   Clear
8:35 AM 23.0 °F 18.4 °F 15.8 °F 74% 30.13 in 10.0 mi NNW 3.5 mph - N/A   Clear
8:55 AM 28.4 °F 24.6 °F 17.6 °F 64% 30.13 in 10.0 mi WNW 3.5 mph - N/A   Clear
9:15 AM 30.2 °F 24.3 °F 15.8 °F 55% 30.12 in 10.0 mi WNW 5.8 mph - N/A   Clear
9:35 AM 33.8 °F 27.7 °F 12.2 °F 41% 30.12 in 10.0 mi West 6.9 mph - N/A   Clear
9:55 AM 35.6 °F 31.7 °F 8.6 °F 33% 30.12 in 10.0 mi NW 4.6 mph - N/A   Clear
10:15 AM 35.6 °F - 8.6 °F 33% 30.12 in 10.0 mi Calm Calm - N/A   Clear
10:35 AM 35.6 °F 29.2 °F 8.6 °F 33% 30.12 in 10.0 mi West 8.1 mph - N/A   Clear
10:55 AM 35.6 °F 29.2 °F 8.6 °F 33% 30.12 in 10.0 mi SW 8.1 mph - N/A   Clear
11:15 AM 37.4 °F 31.4 °F 6.8 °F 28% 30.11 in 10.0 mi SSW 8.1 mph - N/A   Clear
11:35 AM 37.4 °F 34.9 °F 8.6 °F 30% 30.11 in 10.0 mi NNE 3.5 mph - N/A   Clear
11:55 AM 39.2 °F 32.5 °F 8.6 °F 28% 30.11 in 10.0 mi SW 10.4 mph - N/A   Clear
12:35 PM 39.2 °F - 10.4 °F 31% 30.10 in 10.0 mi Calm Calm - N/A   Clear
12:55 PM 42.8 °F 38.0 °F 8.6 °F 25% 30.09 in 10.0 mi SW 8.1 mph - N/A   Clear
1:55 PM 42.8 °F 37.5 °F 12.2 °F 29% 30.08 in 10.0 mi WNW 9.2 mph - N/A   Clear
2:35 PM 42.8 °F 39.3 °F 12.2 °F 29% 30.08 in 10.0 mi WNW 5.8 mph - N/A   Scattered Clouds
2:55 PM 46.4 °F 41.1 °F 12.2 °F 25% 30.08 in 10.0 mi West 11.5 mph - N/A   Scattered Clouds
3:15 PM 44.6 °F 41.4 °F 12.2 °F 27% 30.07 in 10.0 mi West 5.8 mph 19.6 mph N/A   Mostly Cloudy
3:35 PM 46.4 °F 40.7 °F 14.0 °F 27% 30.07 in 10.0 mi NNW 12.7 mph 17.3 mph N/A   Scattered Clouds
3:55 PM 46.4 °F 41.9 °F 12.2 °F 25% 30.07 in 10.0 mi NW 9.2 mph 18.4 mph N/A   Clear
4:15 PM 46.4 °F 40.4 °F 15.8 °F 29% 30.06 in 10.0 mi NNW 13.8 mph 19.6 mph N/A   Clear
4:35 PM 44.6 °F 39.7 °F 14.0 °F 29% 30.06 in 10.0 mi NNW 9.2 mph 29.9 mph N/A   Scattered Clouds
5:15 PM 44.6 °F 40.2 °F 15.8 °F 31% 30.06 in 10.0 mi North 8.1 mph 16.1 mph N/A   Scattered Clouds
5:35 PM 44.6 °F 39.7 °F 15.8 °F 31% 30.06 in 10.0 mi NW 9.2 mph 17.3 mph N/A   Scattered Clouds
5:55 PM 46.4 °F 40.4 °F 15.8 °F 29% 30.06 in 10.0 mi NNW 13.8 mph 18.4 mph N/A   Mostly Cloudy
6:15 PM 46.4 °F 40.4 °F 15.8 °F 29% 30.07 in 10.0 mi North 13.8 mph - N/A   Overcast
6:35 PM 44.6 °F 39.2 °F 15.8 °F 31% 30.07 in 10.0 mi NNE 10.4 mph - N/A   Overcast
6:55 PM 42.8 °F 37.5 °F 17.6 °F 36% 30.08 in 10.0 mi NNE 9.2 mph - N/A   Overcast
7:15 PM 42.8 °F 37.0 °F 17.6 °F 36% 30.08 in 10.0 mi NNE 10.4 mph - N/A   Overcast
7:35 PM 42.8 °F 37.5 °F 17.6 °F 36% 30.08 in 10.0 mi NNE 9.2 mph - N/A   Overcast
7:55 PM 42.8 °F 38.0 °F 17.6 °F 36% 30.08 in 10.0 mi NNE 8.1 mph - N/A   Overcast
8:15 PM 41.0 °F - 17.6 °F 39% 30.09 in 10.0 mi Calm Calm - N/A   Overcast
8:55 PM 39.2 °F 35.9 °F 17.6 °F 42% 30.09 in 10.0 mi North 4.6 mph - N/A   Overcast
9:35 PM 37.4 °F - 19.4 °F 48% 30.10 in 10.0 mi Calm Calm - N/A   Scattered Clouds
9:55 PM 35.6 °F 31.7 °F 19.4 °F 52% 30.10 in 10.0 mi South 4.6 mph - N/A   Clear
10:15 PM 33.8 °F 28.6 °F 19.4 °F 56% 30.09 in 10.0 mi South 5.8 mph - N/A   Clear
10:35 PM 33.8 °F - 19.4 °F 56% 30.09 in 10.0 mi Calm Calm - N/A   Clear
11:15 PM 33.8 °F - 19.4 °F 56% 30.08 in 10.0 mi Calm Calm - N/A   Scattered Clouds
11:35 PM 33.8 °F - 19.4 °F 56% 30.08 in 10.0 mi Calm Calm - N/A   Mostly Cloudy